2023/08/20 00:00:00, 0.3,24.1
2023/08/20 00:10:00, 0.2,24.0
2023/08/20 00:20:00, 0.2,24.0
2023/08/20 00:30:00, 0.2,24.1
2023/08/20 00:40:00, 2.3,24.0
2023/08/20 00:50:00, 5.5,24.0
2023/08/20 01:00:00, 2.2,23.7
2023/08/20 01:10:00, 5.3,23.7
2023/08/20 01:20:00, 6.5,23.6
2023/08/20 01:30:00, 0.3,23.7
2023/08/20 01:40:00, 0.2,23.7
2023/08/20 01:50:00, 0.2,23.7
2023/08/20 02:00:00, 0.2,23.6
2023/08/20 02:10:00, 0.2,23.6
2023/08/20 02:20:00, 0.2,23.5
2023/08/20 02:30:00, 0.2,23.6
2023/08/20 02:40:00, 0.2,23.7
2023/08/20 02:50:00, 4.6,23.4
2023/08/20 03:00:00, 9.3,23.5
2023/08/20 03:10:00, 9.4,23.4
2023/08/20 03:20:00,10.5,23.4
2023/08/20 03:30:00,10.3,23.5
2023/08/20 03:40:00, 9.4,23.3
2023/08/20 03:50:00, 0.2,23.7
2023/08/20 04:00:00, 0.2,23.3
2023/08/20 04:10:00, 0.3,23.1
2023/08/20 04:20:00, 0.3,23.2
2023/08/20 04:30:00, 0.3,23.2
2023/08/20 04:40:00, 0.2,23.0
2023/08/20 04:50:00, 0.2,23.1
2023/08/20 05:00:00, 0.2,22.8
2023/08/20 05:10:00, 1.4,22.9
2023/08/20 05:20:00,11.2,23.0
2023/08/20 05:30:00,11.1,23.0
2023/08/20 05:40:00, 2.4,23.1
2023/08/20 05:50:00, 8.4,23.0
2023/08/20 06:00:00, 8.8,23.2
2023/08/20 06:10:00, 8.7,23.4
2023/08/20 06:20:00, 8.7,23.9
2023/08/20 06:30:00, 8.6,24.4
2023/08/20 06:40:00, 8.2,24.8
2023/08/20 06:50:00, 7.6,25.8
2023/08/20 07:00:00, 7.4,25.8
2023/08/20 07:10:00, 7.6,26.5
2023/08/20 07:20:00, 7.9,27.1
2023/08/20 07:30:00, 8.1,27.6
2023/08/20 07:40:00, 8.1,28.2
2023/08/20 07:50:00, 8.1,28.5
2023/08/20 08:00:00, 8.2,28.9
2023/08/20 08:10:00, 8.1,30.8
2023/08/20 08:20:00, 8.0,32.7
2023/08/20 08:30:00, 7.9,32.3
2023/08/20 08:40:00, 8.0,32.2
2023/08/20 08:50:00, 8.0,32.2
2023/08/20 09:00:00, 7.9,32.5
2023/08/20 09:10:00, 7.7,33.1
2023/08/20 09:20:00, 7.6,33.0
2023/08/20 09:30:00, 7.5,32.8
2023/08/20 09:40:00, 7.5,32.4
2023/08/20 09:50:00, 7.4,32.4
2023/08/20 10:00:00, 7.5,32.6
2023/08/20 10:10:00, 7.5,32.8
2023/08/20 10:20:00, 8.0,32.9
2023/08/20 10:30:00, 8.9,32.8
2023/08/20 10:40:00, 8.7,33.4
2023/08/20 10:50:00, 8.7,33.6
2023/08/20 11:00:00, 8.6,34.1
2023/08/20 11:10:00, 8.3,34.0
2023/08/20 11:20:00, 8.0,33.6
2023/08/20 11:30:00, 7.3,33.6
2023/08/20 11:40:00, 7.0,33.6
2023/08/20 11:50:00, 7.0,34.3
2023/08/20 12:00:00, 7.1,33.9
2023/08/20 12:10:00, 7.1,33.5
2023/08/20 12:20:00, 7.2,33.7
2023/08/20 12:30:00, 7.2,33.7
2023/08/20 12:40:00, 6.9,34.0
2023/08/20 12:50:00, 7.0,34.2
2023/08/20 13:00:00, 7.1,34.2
2023/08/20 13:10:00, 7.3,34.5
2023/08/20 13:20:00, 7.0,34.8
2023/08/20 13:30:00, 6.8,34.8
2023/08/20 13:40:00, 6.7,34.6
2023/08/20 13:50:00, 6.5,34.6
2023/08/20 14:00:00, 6.3,34.2
2023/08/20 14:10:00, 6.1,34.5
2023/08/20 14:20:00, 6.0,33.6
2023/08/20 14:30:00, 6.1,33.7
2023/08/20 14:40:00, 6.1,33.6
2023/08/20 14:50:00, 6.2,33.8
2023/08/20 15:00:00, 6.2,34.2
2023/08/20 15:10:00, 6.2,34.2
2023/08/20 15:20:00, 6.1,33.9
2023/08/20 15:30:00, 6.1,33.4
2023/08/20 15:40:00, 6.0,33.5
2023/08/20 15:50:00, 6.1,33.6
2023/08/20 16:00:00, 6.1,32.1
2023/08/20 16:10:00, 6.0,32.4
2023/08/20 16:20:00, 6.3,32.0
2023/08/20 16:30:00, 6.5,31.1
2023/08/20 16:40:00, 6.6,30.6
2023/08/20 16:50:00, 6.8,30.4
2023/08/20 17:00:00, 7.2,30.0
2023/08/20 17:10:00, 7.4,31.6
2023/08/20 17:20:00, 7.8,32.5
2023/08/20 17:30:00, 8.3,32.0
2023/08/20 17:40:00, 8.7,30.6
2023/08/20 17:50:00, 9.0,30.4
2023/08/20 18:00:00, 8.9,29.6
2023/08/20 18:10:00, 8.8,29.0
2023/08/20 18:20:00, 8.4,28.6
2023/08/20 18:30:00, 7.8,28.1
2023/08/20 18:40:00, 6.3,27.7
2023/08/20 18:50:00, 4.4,27.4
2023/08/20 19:00:00, 1.5,26.8
2023/08/20 19:10:00, 0.3,27.1
2023/08/20 19:20:00, 0.3,26.4
2023/08/20 19:30:00, 0.2,26.8
2023/08/20 19:40:00, 0.3,26.7
2023/08/20 19:50:00, 0.3,26.7
2023/08/20 20:00:00, 0.3,26.6
2023/08/20 20:10:00, 0.3,26.3
2023/08/20 20:20:00, 0.3,26.3
2023/08/20 20:30:00, 0.3,26.5
2023/08/20 20:40:00, 0.3,26.6
2023/08/20 20:50:00, 0.3,26.4
2023/08/20 21:00:00, 0.3,26.5
2023/08/20 21:10:00, 0.2,26.5
2023/08/20 21:20:00, 0.2,26.3
2023/08/20 21:30:00, 0.2,26.1
2023/08/20 21:40:00, 0.2,25.9
2023/08/20 21:50:00, 0.2,26.2
2023/08/20 22:00:00, 4.5,25.8
2023/08/20 22:10:00,10.2,25.9
2023/08/20 22:20:00, 9.0,25.6
2023/08/20 22:30:00, 7.3,25.8
2023/08/20 22:40:00, 5.3,25.5
2023/08/20 22:50:00, 0.3,25.5
2023/08/20 23:00:00, 0.2,26.1
2023/08/20 23:10:00, 0.2,25.3
2023/08/20 23:20:00, 0.2,25.1
2023/08/20 23:30:00, 0.2,25.0
2023/08/20 23:40:00, 0.2,25.1
2023/08/20 23:50:00, 0.2,24.8
